Regional Weather Roundup
Issued by NWS

Home | Current Version | Previous Version | Text Only | Print | Product List | Glossary On
Versions: 1 2 3 4 5 6 7 8 9 10 11 12 13 14 15 16 17 18 19 20 21 22 23 24 25 26 27 28 29 30 31 32 33 34 35 36 37 38 39 40 41 42 43 44 45 46 47 48 49 50
000
ASUS43 KOAX 040010
RWRNE

WEATHER ROUNDUP FOR NEBRASKA
NATIONAL WEATHER SERVICE OMAHA NE
700 PM CDT THU SEP 03 2015

NOTES: SATELLITE DATA IS BEING USED TO AUGMENT CLOUD COVER ABOVE
       12000 FEET.
       "FAIR" INDICATES FEW OR NO CLOUDS BELOW 12,000 FEET WITH NO
       SIGNIFICANT WEATHER AND/OR OBSTRUCTIONS TO VISIBILITY.

  * THESE STATIONS DO NOT REPORT WEATHER SUCH AS RAIN...SNOW OR FOG.

NEZ001>004-019>022-054>056-040100-
NEBRASKA PANHANDLE

CITY           SKY/WX    TMP DP  RH WIND       PRES   REMARKS
SCOTTSBLUFF    LGT RAIN  79  49  34 E12       29.85F
6HR MIN TEMP:  80; 6HR MAX TEMP:  91; 6HR PCP: TRACE;

ALLIANCE       CLOUDY    84  47  27 CALM      29.85R
6HR MIN TEMP:  82; 6HR MAX TEMP:  93;

CHADRON        CLOUDY    90  47  22 S13       29.75S
6HR MIN TEMP:  90; 6HR MAX TEMP:  98;

KIMBALL        LGT RAIN  71  51  48 W18G28    29.90F
SIDNEY         PTSUNNY   81  47  30 NW12      29.88S
6HR MIN TEMP:  81; 6HR MAX TEMP:  94;

$$

NEZ057>060-069>072-079>082-040100-
SOUTHWEST NEBRASKA

CITY           SKY/WX    TMP DP  RH WIND       PRES   REMARKS
NORTH PLATTE   CLOUDY    85  68  56 E8        29.75S
6HR MIN TEMP:  85; 6HR MAX TEMP:  94;

IMPERIAL       PTSUNNY   94  50  22 CALM      29.76F HX  91
6HR MIN TEMP:  91; 6HR MAX TEMP:  97;

LEXINGTON      PTSUNNY   88  66  47 E8        29.74S HX  90
MCCOOK         CLOUDY    92  57  30 S10       29.73S HX  90
6HR MIN TEMP:  91; 6HR MAX TEMP: 102;

OGALLALA       PTSUNNY   91  51  25 NW16      29.78R
$$

NEZ005>010-023>029-035>040-094-040100-
NORTH CENTRAL NEBRASKA

CITY           SKY/WX    TMP DP  RH WIND       PRES   REMARKS
VALENTINE      CLOUDY    90  59  35 S7        29.75R
6HR MIN TEMP:  90; 6HR MAX TEMP: 100;

AINSWORTH      CLOUDY    85  67  55 S7        29.76S
BROKEN BOW     MOSUNNY   91  61  36 S8        29.76F HX  91
6HR MIN TEMP:  88; 6HR MAX TEMP:  93;

O`NEILL        PTSUNNY   86  70  58 SE12G17   29.76S HX  90
ORD            SUNNY     92  62  36 SE13      29.74F HX  92
6HR MIN TEMP:  90; 6HR MAX TEMP:  94;

THEDFORD       PTSUNNY   89  64  43 S9        29.78S HX  91
$$

NEZ041-046>049-061>064-073>077-083>087-040100-
SOUTH CENTRAL NEBRASKA

CITY           SKY/WX    TMP DP  RH WIND       PRES   REMARKS
GRAND ISLAND   MOSUNNY   90  68  48 SE12      29.76F HX  94
6HR MIN TEMP:  89; 6HR MAX TEMP:  96;

AURORA         SUNNY     87  66  49 SE12      29.77S HX  90
HASTINGS       MOSUNNY   91  61  36 S13       29.77S HX  91
6HR MIN TEMP:  90; 6HR MAX TEMP:  97;

HEBRON         MOSUNNY   90  58  34 S14       29.79S
HOLDREGE       PTSUNNY   89  57  34 SE10      29.75S
KEARNEY *      MOSUNNY   88  63  42 SE14      29.75S
YORK           SUNNY     90  68  48 S10       29.78S HX  93
$$

NEZ011>018-030>034-042>045-040100-
NORTHEAST NEBRASKA

CITY           SKY/WX    TMP DP  RH WIND       PRES   REMARKS
NORFOLK        MOSUNNY   86  71  60 SE8       29.76F HX  91
6HR MIN TEMP:  86; 6HR MAX TEMP:  91;

ALBION         PTSUNNY   86  69  56 SE8       29.77F HX  90
BLAIR          CLEAR     86  69  55 SE12      29.80S HX  90
COLUMBUS *     MOSUNNY   88  70  55 SE7       29.76F HX  92
FREMONT        PTCLDY    87  71  57 SE9       29.78S HX  93
TEKAMAH        CLEAR     86  74  67 SE10      29.77F HX  94
6HR MIN TEMP:  86; 6HR MAX TEMP:  91;

WAYNE          CLEAR     83  75  76 SE6       29.78S HX  91
$$

NEZ050>053-065>068-078-088>093-040100-
SOUTHEAST NEBRASKA

CITY           SKY/WX    TMP DP  RH WIND       PRES   REMARKS
LINCOLN        PTCLDY    90  68  48 S13       29.78S HX  94
6HR MIN TEMP:  90; 6HR MAX TEMP:  95; 6HR PCP: TRACE;

OMAHA EPPLEY   PTCLDY    88  73  61 SE17      29.79S HX  95
6HR MIN TEMP:  87; 6HR MAX TEMP:  94;

BEATRICE       CLEAR     89  67  49 S15       29.80S HX  92
FALLS CITY     CLEAR     87  70  56 SE10      29.82F HX  92
6HR MIN TEMP:  87; 6HR MAX TEMP:  94;

NEBRASKA CITY  CLEAR     86  63  46 SE13      29.82S
PLATTSMOUTH    CLEAR     85  69  58 SE9       29.81S
$$

NEZ044-045-051>053-067-040100-
OMAHA AREA

CITY           SKY/WX    TMP DP  RH WIND       PRES   REMARKS
OMAHA EPPLEY   PTCLDY    88  73  61 SE17      29.79S HX  95
6HR MIN TEMP:  87; 6HR MAX TEMP:  94;

BLAIR          CLEAR     86  69  55 SE12      29.80S HX  90
FREMONT        PTCLDY    87  71  57 SE9       29.78S HX  93
MILLARD        PTCLDY    87  73  61 SE10G17   29.79S HX  94
OFFUTT AFB     CLEAR     86  73  64 SE13      29.79S HX  93
PLATTSMOUTH    CLEAR     85  69  58 SE9       29.81S
WAHOO          FAIR      87  72  62 SE9       29.78F HX  93
$$



USA.gov is the U.S. government's official web portal to all federal, state and local government web resources and services.